Regional Weather Roundup
Issued by NWS

Home | Current Version | Previous Version | Graphics & Text | Print | Product List | Glossary On
Versions: 1 2 3 4 5 6 7 8 9 10 11 12 13 14 15 16 17 18 19 20 21 22 23 24 25 26 27 28 29 30 31 32 33 34 35 36 37 38 39 40 41 42 43 44 45 46 47 48 49 50
000
ASUS45 KSLC 270110
RWRUT

UTAH REGIONAL WEATHER ROUNDUP
NATIONAL WEATHER SERVICE SALT LAKE CITY UT
600 PM MST THU FEB 26 2015

UTZ001>011-023>025-270200-

NORTHERN UTAH

CITY           SKY/WX    TMP DP  RH WIND       PRES   REMARKS
BRIGHAM CITY   MOCLDY    38  30  72 S5        29.93R WCI  35
HILL AFB       NOT AVBL
LOGAN          CLOUDY    36  26  67 W7        29.91S WCI  30
OGDEN          MOCLDY    37  29  72 N7        29.90S WCI  32
PROVO AIRPORT  CLOUDY    36  30  80 NW10      29.91R WCI  28
SALT LAKE CITY MOCLDY    37  31  78 W5        29.90S WCI  33
VERNAL         CLOUDY    35  17  47 N5        29.85S WCI  31
WENDOVER       CLOUDY    43  21  42 N7        29.93R
HEBER CITY     CLOUDY    34  27  75 SW6       29.85R WCI  29
WEST JORDAN    MOCLDY    36  32  87 CALM      29.92S

$$

UTZ012>022-026-027-270200-

SOUTHERN/CENTRAL UTAH

CITY           SKY/WX    TMP DP  RH WIND       PRES   REMARKS
BLANDING       CLOUDY    30  29  97 N6        29.94S WCI  24
BRYCE CANYON   PTCLDY    30  19  63 NW13      29.86R WCI  20
CEDAR CITY     CLOUDY    40  26  57 N8        29.86R WCI  34
DELTA          CLOUDY    40  25  54 N12       29.91R WCI  33
HANKSVILLE     PTCLDY    37  32  81 S3        29.89R
MILFORD        CLOUDY    41  26  55 N18G25    29.89R
MOAB/CYNLANDS  CLOUDY    39  27  62 SW9       29.85S WCI  33
PRICE          LGT SNOW  32  27  81 NE3       29.84S
ST GEORGE      CLOUDY    61  27  27 NW6       29.80S
KANAB            N/A     46  23  39 NW8       29.85S

$$

REGIONAL REPORTS     COLORADO/ARIZONA

CITY           SKY/WX    TMP DP  RH WIND       PRES   REMARKS
CRAIG, CO      LGT SNOW  27  22  81 E3        29.87R
GRAND JUNCTION CLOUDY    40  16  37 CALM      29.84S
RIFLE          CLOUDY    37  18  46 W13       29.84R WCI  29
MONTROSE       CLOUDY    32  20  61 CALM      29.87S
CORTEZ         LGT SNOW  31  30  96 CALM      29.88S VSB 1
PAGE, AZ       CLOUDY    48  31  51 SE3       29.81R
GRAND CANYON   PTCLDY    43  20  39 VRB7      29.85S
KINGMAN        PTCLDY    60  18  19 N13       29.82S
FLAGSTAFF      CLOUDY    39  24  55 SW10      29.87S WCI  32

$$

REGIONAL REPORTS    NEVADA/IDAHO/WYOMING

CITY           SKY/WX    TMP DP  RH WIND       PRES   REMARKS
LAS VEGAS, NV  PTCLDY    67  19  16 SE8       29.72S
ELY            CLOUDY    38  15  39 NW22      29.92R WCI  27
ELKO           CLOUDY    39  26  59 CALM      29.95S
POCATELLO, ID  PTCLDY    36  13  38 NW7       29.92S WCI  30
BURLEY         MOCLDY    39  25  57 W8        29.91F WCI  33
EVANSTON, WY   LGT SNOW  24  21  88 E6        29.86R FOG     WCI  17
ROCK SPRINGS   CLOUDY    13   8  81 NE18      29.92R WCI  -4

$$


USA.gov is the U.S. government's official web portal to all federal, state and local government web resources and services.